Regional Weather Roundup
Issued by NWS

Home | Current Version | Previous Version | Text Only | Print | Product List | Glossary On
Versions: 1 2 3 4 5 6 7 8 9 10 11 12 13 14 15 16 17 18 19 20 21 22 23 24 25 26 27 28 29 30 31 32 33 34 35 36 37 38 39 40 41 42 43 44 45 46 47 48 49 50
000
ASUS45 KBOU 250107
RWRCO

WEATHER ROUNDUP FOR COLORADO
NATIONAL WEATHER SERVICE DENVER/BOULDER CO
600 PM MST SAT JAN 24 2015

NOTE: "FAIR" INDICATES FEW OR NO CLOUDS BELOW 12000 FEET WITH NO
SIGNIFICANT WEATHER AND/OR OBSTRUCTIONS TO VISIBILITY.

COZ001>005-013-030-031-250200-
...NORTHWEST COLORADO...

CITY           SKY/WX    TMP DP  RH WIND       PRES   REMARKS
CRAIG          CLOUDY    27  19  72 SW3       30.32R
HAYDEN         CLOUDY    25  12  58 E6        30.31R WCI  18
MEEKER         CLOUDY    27  17  66 CALM      30.32R
MOUNT WERNER   NOT AVBL
STEAMBOAT SPGS CLOUDY    21  13  70 CALM      30.31R
WALDEN         CLOUDY    30  19  64 SW10      30.22S WCI  21
$$

COZ006>008-011-250200-
...WEST CENTRAL VALLEYS...

CITY           SKY/WX    TMP DP  RH WIND       PRES   REMARKS
GRAND JUNCTION MOCLDY    30  20  66 CALM      30.34R
MONTROSE       MOCLDY    32  12  43 NE5       30.36R WCI  27
EAGLE          MOCLDY    27  18  69 CALM      30.36R
RIFLE          CLOUDY    32  14  47 SW3       30.35R
DELTA          MOCLDY    35  16  44 N3        30.36R
NUCLA          MOCLDY    37  12  35 NW3       30.35S
$$

COZ017>023-064>068-250200-
...SOUTHWEST COLORADO...

CITY           SKY/WX    TMP DP  RH WIND       PRES   REMARKS
DURANGO        CLEAR     33  19  56 CALM      30.26R
CORTEZ         CLEAR     39  14  36 W6        30.28R
PAGOSA SPRINGS CLEAR     28  16  62 CALM      30.26S
TELLURIDE      MOCLDY    35  12  39 CALM      30.35R
WOLF CREEK PAS NOT AVBL
$$

COZ009-010-012-014-032>034-037-058>063-250200-
...CENTRAL COLORADO...

CITY           SKY/WX    TMP DP  RH WIND       PRES   REMARKS
ASPEN          CLOUDY    27  15  61 N3        30.32R
BUENA VISTA    CLOUDY    39  17  41 NW26G37   30.15S
COPPER MTN     CLOUDY    25  16  68 W20       30.31R WCI  11
BERTHOUD PASS  LGT SNOW  16  10  79 NW41G58   30.21F WCI  -7
COTTONWOOD PAS CLOUDY    37  19  48 NW30G47   30.15R
GUNNISON       CLOUDY    10 N/A N/A CALM      30.39R
KREMMLING      CLOUDY    18   9  68 SE3       30.33R
LEADVILLE      CLOUDY    28  13  53 N9        30.30R WCI  19
MONARCH PASS   CLOUDY    18  10  73 W40G46    30.36R WCI  -4
SALIDA         CLOUDY    42  14  32 W3        30.24F
SUNLIGHT       CLOUDY    27  14  59 CALM        N/A
WILKERSON PASS CLOUDY    28  16  59 N9G26     30.24R WCI  20
$$

COZ069>075-250200-
...SAN LUIS VALLEY/SANGRE DE CRISTO MOUNTAINS...

CITY           SKY/WX    TMP DP  RH WIND       PRES   REMARKS
ALAMOSA        CLOUDY    26  15  63 NW6       30.24R WCI  19
LA VETA PASS   NOT AVBL
SAGUACHE       CLOUDY    19  12  73 SW3       30.25R
$$

COZ035-036-038>040-250200-
...NORTHERN COLORADO FRONT RANGE...

CITY           SKY/WX    TMP DP  RH WIND       PRES   REMARKS
DENVER INTL AP CLOUDY    45  21  38 W14       30.03R
DMNS CITY PARK   N/A     49  20  31 W14G24    30.05R
AURORA         MOCLDY    43  21  41 W9        30.05R
FRONT RANGE AP NOT AVBL
ERIE MUNI ARPT CLOUDY    49  19  30 W13G22    30.04R
BOULDER MUN AP CLOUDY    50  21  32 W36G47    30.00F
CENTENNIAL     CLOUDY    47  22  37 NW14      30.05R
BROOMFIELD     MOCLDY    46  19  34 W33       30.05R
FORT COLLINS   MOCLDY    45  25  45 NE9       30.05R
LONGMONT       MOCLDY    50  20  30 NW6G17    30.05R
$$

COZ041-046-047-076>085-087-088-250200-
...PIKES PEAK/PALMER DIVIDE AND SOUTHERN FOOTHILLS...

CITY           SKY/WX    TMP DP  RH WIND       PRES   REMARKS
COLO. SPRINGS  CLOUDY    46  20  35 N14       30.05R
A. F. ACADEMY  CLOUDY    44  19  37 N12       30.05R
ELLICOTT       CLOUDY   N/A N/A N/A N10       30.03R
FALCON         CLOUDY    42  20  41 NW14G21   30.06R
FORT CARSON    CLOUDY    43  19  37 S5        30.03R
LIMON          CLOUDY    44  24  45 NW21      30.01R
MONUMENT HILL  CLOUDY    36  25  64 W12       30.07R
TRINIDAD       CLOUDY    40  23  50 NW13      30.04R
$$

COZ042>045-048>051-090-091-250200-
...NORTHEAST COLORADO...

CITY           SKY/WX    TMP DP  RH WIND       PRES   REMARKS
GREELEY ARPT   CLOUDY    45  25  45 N16       30.02R
AKRON          CLOUDY    42  30  62 NW16      29.99R
BURLINGTON     CLOUDY    40  28  62 NW9       29.95R
WRAY           CLOUDY    46  29  51 NW16G24   29.96R
STERLING       CLOUDY    45  32  61 NW24G30   29.96R
HOLYOKE        CLOUDY    48  28  46 NW26G35   29.94R
FORT MORGAN    DRIZZLE   44  28  54 NW23G37   30.01R
$$

COZ086-089-092>099-250200-
...SOUTHEAST COLORADO...

CITY           SKY/WX    TMP DP  RH WIND       PRES   REMARKS
PUEBLO         CLOUDY    47  21  35 CALM      30.02R
LA JUNTA       CLOUDY    42  28  57 W10       29.98R
LAMAR          CLOUDY    35  30  82 S7        29.96R WCI  29
SPRINGFIELD      N/A     40  29  64 NW12      29.97R
$$


USA.gov is the U.S. government's official web portal to all federal, state and local government web resources and services.